Tracking 23726 objects as of 22-Sep-2021
HD Live streaming from Space Station
objects crossing your sky now

STARLINK-1501

Track STARLINK-1501 now!
10-day predictions
STARLINK-1501 is classified as:


NORAD ID: 45763
Int'l Code: 2020-038AK
Perigee: 374.3 km
Apogee: 379.3 km
Inclination: 53.1 °
Period: 91.9 minutes
Semi major axis: 6747 km
RCS: Unknown
Launch date: June 13, 2020
Source: United States (US)
Launch site: AIR FORCE EASTERN TEST RANGE (AFETR)
aabbcc
Your satellite tracking list
Your tracking list is empty




NASA's NSSDC Master Catalog

Two Line Element Set (TLE):
1 45763U 20038AK  21264.39793302  .00009883  00000-0  99221-4 0  9994
2 45763  53.0538 297.8579 0003688  26.3577 333.7625 15.66237939 71472
Source of the keplerian elements: AFSPC